Shawano, WI

10:01 AM CST on December 16, 2017 (GMT -0600)
Shawano

Weather History for KEZS - February, 2014

Change the Weather History Date:

Saturday, February 8, 2014

  Actual Average (KCLI) Record (KCLI)
Temperature  
Mean Temperature 4 °F -  
Max Temperature 18 °F 27 °F 47 °F (1987)
Min Temperature -10 °F 4 °F -20 °F (1971)
Degree Days  
Heating Degree Days 61    
Moisture  
Dew Point -2 °F    
Average Humidity 68    
Maximum Humidity 81    
Minimum Humidity 51    
Precipitation  
Precipitation 0.00 in - - ()
Sea Level Pressure  
Sea Level Pressure 30.15 in    
Wind  
Wind Speed 1 mph (SW)    
Max Wind Speed 9 mph    
Max Gust Speed -    
Visibility 10 miles    
Events      
Averages and records for this station are not official NWS values.
T = Trace of Precipitation, MM = Missing Value Source: NWS Daily Summary

Daily Weather History Graph

Daily Weather History Graph

Search for Another Location

Airport or City:

Trip Planner

Search our weather history database for the weather conditions in past years. The results will help you decide how hot, cold, wet, or windy it might be!

Date:

Astronomy

Feb. 08, 2014 Rise Set
Actual Time 7:04 AM CST 5:12 PM CST
Civil Twilight 6:34 AM CST 5:43 PM CST
Nautical Twilight 5:59 AM CST 6:17 PM CST
Astronomical Twilight 5:25 AM CST 6:51 PM CST
Moon 12:02 PM CST (2/8) 2:20 AM CST (2/8)
Length of Visible Light 11h 09m
Length of Day
10h 08m
Waxing Gibbous, 69% of the Moon is Illuminated
Feb 8
Waxing Gibbous
Feb 14
Full
Feb 22
Last Quarter
Mar 1
New
Mar 8
First Quarter

Hourly Weather History & Observations

Time (CST) Temp. Windchill Dew Point Humidity Pressure Visibility Wind Dir Wind Speed Gust Speed Precip Events Conditions
12:15 AM 3.7 °F - -7.1 °F 61% 30.20 in 10.0 mi Calm Calm - N/A   Clear
12:35 AM 2.5 °F - -7.1 °F 64% 30.20 in 10.0 mi Calm Calm - N/A   Clear
12:55 AM 2.1 °F - -6.9 °F 66% 30.20 in 10.0 mi Calm Calm - N/A   Clear
1:15 AM 1.4 °F - -6.7 °F 69% 30.20 in 10.0 mi Calm Calm - N/A   Clear
1:35 AM 1.2 °F - -6.2 °F 71% 30.20 in 10.0 mi Calm Calm - N/A   Clear
1:55 AM 0.5 °F - -6.3 °F 73% 30.20 in 10.0 mi Calm Calm - N/A   Clear
2:15 AM -2.0 °F - -7.8 °F 76% 30.20 in 10.0 mi Calm Calm - N/A   Clear
2:35 AM -2.6 °F - -7.4 °F 80% 30.20 in 10.0 mi Calm Calm - N/A   Clear
2:55 AM -1.5 °F - -6.5 °F 79% 30.20 in 10.0 mi Calm Calm - N/A   Clear
3:15 AM -1.1 °F - -6.0 °F 80% 30.20 in 10.0 mi Calm Calm - N/A   Clear
3:35 AM -1.5 °F - -6.3 °F 80% 30.20 in 10.0 mi Calm Calm - N/A   Clear
3:55 AM -2.7 °F - -7.6 °F 80% 30.21 in 10.0 mi Calm Calm - N/A   Clear
4:15 AM -3.8 °F - -8.9 °F 79% 30.21 in 10.0 mi Calm Calm - N/A   Clear
4:35 AM -3.3 °F - -8.0 °F 80% 30.20 in 10.0 mi Calm Calm - N/A   Clear
4:55 AM -2.7 °F - -8.0 °F 78% 30.20 in 10.0 mi Calm Calm - N/A   Clear
5:15 AM -4.9 °F - -10.3 °F 78% 30.20 in 10.0 mi Calm Calm - N/A   Clear
5:35 AM -8.7 °F - -15.0 °F 74% 30.19 in 10.0 mi Calm Calm - N/A   Clear
5:55 AM -10.3 °F - -16.2 °F 75% 30.19 in 10.0 mi Calm Calm - N/A   Clear
6:15 AM -10.7 °F - -16.2 °F 76% 30.19 in 10.0 mi Calm Calm - N/A   Clear
6:35 AM -9.0 °F - -14.8 °F 76% 30.18 in 10.0 mi Calm Calm - N/A   Clear
6:55 AM -10.7 °F - -16.4 °F 76% 30.20 in 10.0 mi Calm Calm - N/A   Clear
7:15 AM -9.2 °F - -15.3 °F 74% 30.20 in 10.0 mi Calm Calm - N/A   Clear
7:35 AM -9.4 °F - -15.0 °F 76% 30.21 in 10.0 mi Calm Calm - N/A   Clear
7:55 AM -9.6 °F - -15.3 °F 76% 30.21 in 10.0 mi Calm Calm - N/A   Clear
8:15 AM -5.8 °F - -11.0 °F 78% 30.21 in 10.0 mi Calm Calm - N/A   Clear
8:35 AM -2.2 °F - -7.2 °F 79% 30.20 in 10.0 mi Calm Calm - N/A   Clear
8:55 AM -0.4 °F - -5.3 °F 80% 30.20 in 10.0 mi Calm Calm - N/A   Clear
9:15 AM 1.8 °F - -3.1 °F 80% 30.20 in 10.0 mi Calm Calm - N/A   Clear
9:35 AM 2.5 °F - -2.6 °F 79% 30.19 in 10.0 mi Calm Calm - N/A   Clear
9:55 AM 3.6 °F - -1.1 °F 81% 30.17 in 10.0 mi Calm Calm - N/A   Clear
10:15 AM 6.8 °F -3.5 °F 1.4 °F 79% 30.18 in 10.0 mi WSW 5.8 mph - N/A   Clear
10:35 AM 9.0 °F 0.6 °F -0.2 °F 66% 30.19 in 10.0 mi WSW 4.6 mph - N/A   Clear
10:55 AM 10.4 °F 0.8 °F -0.2 °F 62% 30.19 in 10.0 mi SW 5.8 mph - N/A   Clear
11:15 AM 10.9 °F 2.9 °F -0.2 °F 61% 30.18 in 10.0 mi WSW 4.6 mph - N/A   Clear
11:35 AM 13.1 °F 5.4 °F 0.9 °F 58% 30.17 in 10.0 mi WSW 4.6 mph - N/A   Clear
11:55 AM 13.8 °F 8.0 °F 1.2 °F 57% 30.16 in 10.0 mi WSW 3.5 mph - N/A   Clear
12:15 PM 15.6 °F 8.3 °F 1.6 °F 54% 30.15 in 10.0 mi SSW 4.6 mph - N/A   Clear
12:35 PM 15.8 °F 6.1 °F 1.4 °F 53% 30.14 in 10.0 mi SW 6.9 mph - N/A   Clear
12:55 PM 17.8 °F 10.9 °F 3.0 °F 53% 30.13 in 10.0 mi SW 4.6 mph - N/A   Clear
1:15 PM 17.6 °F 7.3 °F 2.1 °F 51% 30.12 in 10.0 mi WSW 8.1 mph - N/A   Clear
1:35 PM 18.1 °F 7.9 °F 2.5 °F 51% 30.12 in 10.0 mi SW 8.1 mph - N/A   Clear
1:55 PM 17.4 °F 6.2 °F 2.3 °F 52% 30.11 in 10.0 mi WSW 9.2 mph - N/A   Clear
2:15 PM 16.7 °F 6.2 °F 2.3 °F 53% 30.11 in 10.0 mi SW 8.1 mph - N/A   Mostly Cloudy
2:35 PM 17.1 °F 5.8 °F 2.5 °F 53% 30.10 in 10.0 mi WSW 9.2 mph - N/A   Overcast
2:55 PM 17.4 °F - 2.5 °F 52% 30.10 in 10.0 mi Calm Calm - N/A   Overcast
3:15 PM 17.4 °F 9.1 °F 2.3 °F 52% 30.10 in 10.0 mi South 5.8 mph - N/A   Mostly Cloudy
3:35 PM 16.9 °F 9.8 °F 2.3 °F 53% 30.11 in 10.0 mi SSW 4.6 mph - N/A   Mostly Cloudy
3:55 PM 16.0 °F 10.4 °F 2.1 °F 54% 30.11 in 10.0 mi SSW 3.5 mph - N/A   Scattered Clouds
4:15 PM 15.6 °F 10.0 °F 2.3 °F 56% 30.11 in 10.0 mi SSW 3.5 mph - N/A   Scattered Clouds
4:35 PM 15.4 °F - 2.3 °F 56% 30.11 in 10.0 mi Calm Calm - N/A   Overcast
4:55 PM 15.3 °F 9.6 °F 2.8 °F 58% 30.11 in 10.0 mi SSW 3.5 mph - N/A   Overcast
5:15 PM 14.9 °F - 3.0 °F 59% 30.11 in 10.0 mi Calm Calm - N/A   Overcast
5:35 PM 14.9 °F - 3.0 °F 59% 30.11 in 10.0 mi Calm Calm - N/A   Overcast
5:55 PM 14.9 °F - 3.2 °F 60% 30.11 in 10.0 mi Calm Calm - N/A   Overcast
6:15 PM 14.7 °F - 3.7 °F 62% 30.11 in 10.0 mi Calm Calm - N/A   Overcast
6:35 PM 14.5 °F - 4.1 °F 63% 30.12 in 10.0 mi Calm Calm - N/A   Overcast
6:55 PM 14.2 °F - 4.6 °F 66% 30.11 in 10.0 mi Calm Calm - N/A   Overcast
7:15 PM 14.0 °F 8.2 °F 4.6 °F 66% 30.11 in 10.0 mi SSW 3.5 mph - N/A   Overcast
7:35 PM 14.0 °F - 5.0 °F 67% 30.11 in 10.0 mi Calm Calm - N/A   Overcast
7:55 PM 13.8 °F - 5.0 °F 68% 30.11 in 10.0 mi Calm Calm - N/A   Overcast
8:15 PM 13.3 °F 7.3 °F 5.0 °F 70% 30.11 in 10.0 mi SW 3.5 mph - N/A   Overcast
8:35 PM 13.5 °F - 5.0 °F 69% 30.11 in 10.0 mi Calm Calm - N/A   Overcast
8:55 PM 13.1 °F 7.1 °F 5.0 °F 70% 30.11 in 10.0 mi WSW 3.5 mph - N/A   Overcast
9:15 PM 12.9 °F - 4.8 °F 70% 30.10 in 10.0 mi Calm Calm - N/A   Overcast
9:35 PM 13.1 °F - 4.8 °F 70% 30.11 in 10.0 mi Calm Calm - N/A   Overcast
9:55 PM 12.9 °F - 4.8 °F 70% 30.11 in 10.0 mi Calm Calm - N/A   Overcast
10:15 PM 12.9 °F - 4.8 °F 70% 30.10 in 10.0 mi Calm Calm - N/A   Overcast
10:35 PM 12.7 °F - 4.8 °F 71% 30.11 in 10.0 mi Calm Calm - N/A   Overcast
10:55 PM 12.7 °F - 5.0 °F 71% 30.11 in 10.0 mi Calm Calm - N/A   Overcast
11:15 PM 12.6 °F - 4.8 °F 71% 30.10 in 10.0 mi Calm Calm - N/A   Overcast
11:35 PM 12.2 °F - 5.0 °F 73% 30.10 in 10.0 mi Calm Calm - N/A   Overcast
11:55 PM 12.2 °F - 5.0 °F 73% 30.10 in 10.0 mi Calm Calm - N/A   Overcast